Newcastle, WY

7:46 PM MST on December 08, 2019 (GMT -0700)
Mondell

Weather History for KECS - November, 2019

Change the Weather History Date:

Thursday, November 14, 2019

  Actual Average (WUND) Record (WUND)
Temperature  
Mean Temperature 37 °F -  
Max Temperature 48 °F - - (-1)
Min Temperature 26 °F - - (-1)
Degree Days  
Heating Degree Days 28    
Moisture  
Dew Point 29 °F    
Average Humidity 76    
Maximum Humidity 100    
Minimum Humidity 46    
Precipitation  
Precipitation 0.00 in - - ()
Sea Level Pressure  
Sea Level Pressure 30.20 in    
Wind  
Wind Speed 4 mph ()    
Max Wind Speed 14 mph    
Max Gust Speed 22 mph    
Visibility 9.3 miles    
Events Fog    
Averages and records for this station are not official NWS values.
T = Trace of Precipitation, MM = Missing Value Source: Averaged Metar Reports

Daily Weather History Graph

Daily Weather History Graph

Search for Another Location

Airport or City:

Astronomy

Nov. 14, 2019 Rise Set
Actual Time 6:50 AM MST 4:32 PM MST
Civil Twilight 6:19 AM MST 5:03 PM MST
Nautical Twilight 5:44 AM MST 5:38 PM MST
Astronomical Twilight 5:10 AM MST 6:12 PM MST
Moon 6:17 PM MST (11/14) 8:50 AM MST (11/14)
Length of Visible Light 10h 44m
Length of Day
9h 42m
Waning Gibbous, 95% of the Moon is Illuminated
Nov 14
Waning Gibbous
Nov 19
Last Quarter
Nov 26
New
Dec 3
First Quarter
Dec 11
Full

Hourly Weather History & Observations

Time (MST) Temp. Windchill Dew Point Humidity Pressure Visibility Wind Dir Wind Speed Gust Speed Precip Events Conditions
12:15 AM 32.0 °F - 32.0 °F 100% 30.21 in 10.0 mi Calm Calm - N/A   Overcast
12:35 AM 32.0 °F - 32.0 °F 100% 30.21 in 10.0 mi Calm Calm - N/A   Overcast
12:55 AM 32.0 °F - 32.0 °F 100% 30.21 in 10.0 mi Calm Calm - N/A   Overcast
1:15 AM 32.0 °F - 32.0 °F 100% 30.21 in 10.0 mi Calm Calm - N/A   Overcast
1:35 AM 32.0 °F - 32.0 °F 100% 30.21 in 10.0 mi Calm Calm - N/A   Overcast
1:55 AM 32.0 °F - 32.0 °F 100% 30.22 in 10.0 mi Calm Calm - N/A   Overcast
2:15 AM 32.0 °F - 32.0 °F 100% 30.23 in 10.0 mi Calm Calm - N/A   Overcast
2:35 AM 32.0 °F 23.6 °F 32.0 °F 100% 30.23 in 10.0 mi East 10.4 mph - N/A   Overcast
2:55 AM 32.0 °F 23.6 °F 32.0 °F 100% 30.23 in 10.0 mi East 10.4 mph - N/A   Overcast
3:15 AM 32.0 °F 28.7 °F 32.0 °F 100% 30.23 in 10.0 mi East 3.5 mph - N/A   Overcast
3:35 AM 32.0 °F - 32.0 °F 100% 30.23 in 10.0 mi Calm Calm - N/A   Mostly Cloudy
3:55 AM 32.0 °F - 32.0 °F 100% 30.23 in 10.0 mi Calm Calm - N/A   Overcast
4:15 AM 32.0 °F - 32.0 °F 100% 30.23 in 10.0 mi Calm Calm - N/A   Mostly Cloudy
4:35 AM 30.2 °F - 30.2 °F 100% 30.23 in 10.0 mi Calm Calm - N/A   Mostly Cloudy
4:55 AM 28.4 °F 19.7 °F 28.4 °F 100% 30.24 in 3.0 mi SSW 9.2 mph - N/A   Scattered Clouds
5:15 AM 28.4 °F - 28.4 °F 100% 30.25 in 4.0 mi Calm Calm - N/A   Clear
5:35 AM 28.4 °F - 28.4 °F 100% 30.25 in 0.5 mi Calm Calm - N/A Fog Light Freezing Fog
5:55 AM 30.2 °F - 30.2 °F 100% 30.25 in 7.0 mi Calm Calm - N/A   Mostly Cloudy
6:15 AM 28.4 °F 22.2 °F 28.4 °F 100% 30.25 in 10.0 mi NNE 5.8 mph - N/A   Scattered Clouds
6:35 AM 28.4 °F 22.2 °F 28.4 °F 100% 30.24 in 5.0 mi NE 5.8 mph - N/A   Clear
6:55 AM 28.4 °F 22.2 °F 28.4 °F 100% 30.24 in 10.0 mi NNE 5.8 mph - N/A   Clear
7:15 AM 26.6 °F 21.2 °F 26.6 °F 100% 30.25 in 10.0 mi West 4.6 mph - N/A   Clear
7:35 AM 30.2 °F - 30.2 °F 100% 30.26 in 10.0 mi Calm Calm - N/A   Clear
7:55 AM 30.2 °F - 30.2 °F 100% 30.26 in 10.0 mi Calm Calm - N/A   Clear
8:15 AM 32.0 °F - 32.0 °F 100% 30.26 in 10.0 mi Calm Calm - N/A   Clear
8:35 AM 32.0 °F 27.5 °F 32.0 °F 100% 30.27 in 10.0 mi ESE 4.6 mph - N/A   Clear
8:55 AM 32.0 °F - 32.0 °F 100% 30.27 in 10.0 mi Calm Calm - N/A   Clear
9:15 AM 30.2 °F - 30.2 °F 100% 30.27 in 0.2 mi Calm Calm - N/A Fog Light Freezing Fog
9:35 AM 32.0 °F 27.5 °F 32.0 °F 100% 30.26 in 0.2 mi SSE 4.6 mph - N/A Fog Fog
9:55 AM 35.6 °F 30.7 °F 33.8 °F 93% 30.27 in 10.0 mi SSW 5.8 mph - N/A   Scattered Clouds
10:15 AM 37.4 °F 30.3 °F 33.8 °F 87% 30.27 in 10.0 mi SSW 10.4 mph - N/A   Clear
10:35 AM 41.0 °F 36.4 °F 33.8 °F 76% 30.27 in 10.0 mi SSE 6.9 mph - N/A   Clear
11:15 AM 42.8 °F 37.5 °F 32.0 °F 66% 30.25 in 10.0 mi ESE 9.2 mph - N/A   Clear
11:35 AM 42.8 °F 39.3 °F 32.0 °F 66% 30.24 in 10.0 mi SSE 5.8 mph - N/A   Clear
11:55 AM 44.6 °F 41.4 °F 32.0 °F 61% 30.24 in 10.0 mi SSE 5.8 mph - N/A   Clear
12:15 PM 44.6 °F 40.7 °F 32.0 °F 61% 30.23 in 10.0 mi South 6.9 mph - N/A   Clear
12:35 PM 44.6 °F 40.2 °F 30.2 °F 57% 30.22 in 10.0 mi SSE 8.1 mph - N/A   Clear
12:55 PM 46.4 °F 42.9 °F 30.2 °F 53% 30.21 in 10.0 mi SE 6.9 mph - N/A   Clear
1:15 PM 46.4 °F 43.5 °F 30.2 °F 53% 30.20 in 10.0 mi SSE 5.8 mph - N/A   Clear
1:35 PM 46.4 °F 42.4 °F 30.2 °F 53% 30.19 in 10.0 mi SSE 8.1 mph - N/A   Clear
1:55 PM 48.2 °F - 28.4 °F 46% 30.19 in 10.0 mi SE 6.9 mph - N/A   Clear
2:15 PM 48.2 °F - 28.4 °F 46% 30.19 in 10.0 mi SSE 8.1 mph - N/A   Clear
2:35 PM 46.4 °F 42.9 °F 28.4 °F 50% 30.19 in 10.0 mi SSE 6.9 mph - N/A   Clear
2:55 PM 46.4 °F 42.9 °F 28.4 °F 50% 30.17 in 10.0 mi SSE 6.9 mph - N/A   Clear
3:15 PM 46.4 °F 42.9 °F 26.6 °F 46% 30.17 in 10.0 mi SSE 6.9 mph - N/A   Clear
3:35 PM 46.4 °F 42.4 °F 28.4 °F 50% 30.17 in 10.0 mi SSE 8.1 mph - N/A   Clear
3:55 PM 44.6 °F 39.2 °F 28.4 °F 53% 30.16 in 10.0 mi South 10.4 mph - N/A   Clear
4:15 PM 42.8 °F 39.3 °F 28.4 °F 57% 30.16 in 10.0 mi SE 5.8 mph - N/A   Clear
4:35 PM 39.2 °F 34.2 °F 28.4 °F 65% 30.15 in 10.0 mi ESE 6.9 mph - N/A   Clear
4:55 PM 41.0 °F 35.2 °F 26.6 °F 57% 30.15 in 10.0 mi ESE 9.2 mph - N/A   Clear
5:35 PM 41.0 °F 34.7 °F 26.6 °F 57% 30.15 in 10.0 mi East 10.4 mph 18.4 mph N/A   Clear
5:55 PM 41.0 °F 34.3 °F 24.8 °F 53% 30.15 in 10.0 mi East 11.5 mph 17.3 mph N/A   Clear
6:15 PM 41.0 °F 34.3 °F 24.8 °F 53% 30.15 in 10.0 mi East 11.5 mph 18.4 mph N/A   Clear
6:35 PM 41.0 °F 34.3 °F 24.8 °F 53% 30.14 in 10.0 mi East 11.5 mph 19.6 mph N/A   Clear
6:55 PM 41.0 °F 35.8 °F 24.8 °F 53% 30.15 in 10.0 mi SE 8.1 mph 18.4 mph N/A   Clear
7:15 PM 41.0 °F 35.2 °F 24.8 °F 53% 30.15 in 10.0 mi ESE 9.2 mph - N/A   Clear
7:35 PM 41.0 °F 34.3 °F 23.0 °F 49% 30.14 in 10.0 mi ESE 11.5 mph - N/A   Clear
7:55 PM 41.0 °F 33.9 °F 24.8 °F 53% 30.14 in 10.0 mi ESE 12.7 mph 21.9 mph N/A   Clear
8:15 PM 41.0 °F 34.7 °F 24.8 °F 53% 30.14 in 10.0 mi SE 10.4 mph - N/A   Clear
8:35 PM 41.0 °F 33.5 °F 26.6 °F 57% 30.13 in 10.0 mi ESE 13.8 mph 21.9 mph N/A   Clear
8:55 PM 41.0 °F 35.2 °F 26.6 °F 57% 30.13 in 10.0 mi SE 9.2 mph 20.7 mph N/A   Clear
9:15 PM 41.0 °F 35.2 °F 26.6 °F 57% 30.13 in 10.0 mi ESE 9.2 mph 17.3 mph N/A   Clear
9:35 PM 39.2 °F 32.5 °F 26.6 °F 61% 30.13 in 10.0 mi ESE 10.4 mph - N/A   Clear
9:55 PM 41.0 °F 34.7 °F 26.6 °F 57% 30.12 in 10.0 mi ESE 10.4 mph - N/A   Clear
10:15 PM 39.2 °F 33.0 °F 26.6 °F 61% 30.12 in 10.0 mi ESE 9.2 mph - N/A   Clear
10:35 PM 37.4 °F 30.8 °F 26.6 °F 65% 30.11 in 10.0 mi ESE 9.2 mph 16.1 mph N/A   Clear
10:55 PM 37.4 °F 32.1 °F 26.6 °F 65% 30.12 in 10.0 mi SSE 6.9 mph - N/A   Clear
11:15 PM 37.4 °F 32.1 °F 26.6 °F 65% 30.12 in 10.0 mi SE 6.9 mph - N/A   Clear
11:55 PM 32.0 °F - 24.8 °F 75% 30.12 in 10.0 mi Calm Calm - N/A   Clear